TimeEST,TemperatureF,Dew PointF,Humidity,Sea Level PressureIn,VisibilityMPH,Wind Direction,Wind SpeedMPH,Gust SpeedMPH,PrecipitationIn,Events,Conditions,WindDirDegrees,DateUTC
12:53 AM,33.1,10.0,38,30.04,10.0,West,3.5,-,N/A,,Clear,260,2012-12-23 05:53:00
1:53 AM,34.0,10.0,37,30.05,10.0,Calm,Calm,-,N/A,,Clear,0,2012-12-23 06:53:00
2:53 AM,34.0,10.0,37,30.07,10.0,Calm,Calm,-,N/A,,Clear,0,2012-12-23 07:53:00
3:53 AM,33.1,10.9,40,30.06,10.0,Calm,Calm,-,N/A,,Clear,0,2012-12-23 08:53:00
4:53 AM,34.0,10.9,38,30.04,10.0,Calm,Calm,-,N/A,,Clear,0,2012-12-23 09:53:00
5:53 AM,33.1,12.0,42,30.06,10.0,Calm,Calm,-,N/A,,Clear,0,2012-12-23 10:53:00
6:53 AM,32.0,12.0,44,30.06,10.0,WNW,3.5,-,N/A,,Clear,300,2012-12-23 11:53:00
7:53 AM,28.9,12.9,51,30.05,10.0,Calm,Calm,-,N/A,,Clear,0,2012-12-23 12:53:00
8:53 AM,34.0,14.0,44,30.04,10.0,South,3.5,-,N/A,,Clear,170,2012-12-23 13:53:00
9:53 AM,37.9,14.0,38,30.04,10.0,Calm,Calm,-,N/A,,Clear,0,2012-12-23 14:53:00
10:53 AM,37.9,15.1,39,30.02,10.0,South,4.6,-,N/A,,Clear,190,2012-12-23 15:53:00
11:53 AM,39.0,17.1,41,29.99,10.0,SSE,3.5,-,N/A,,Clear,160,2012-12-23 16:53:00
12:53 PM,44.1,19.0,37,29.95,10.0,SSE,3.5,-,N/A,,Clear,150,2012-12-23 17:53:00
1:53 PM,48.0,21.0,34,29.92,10.0,South,9.2,-,N/A,,Clear,170,2012-12-23 18:53:00
2:53 PM,46.9,19.9,34,29.91,10.0,South,12.7,-,N/A,,Clear,190,2012-12-23 19:53:00
3:53 PM,46.0,21.0,37,29.91,10.0,South,12.7,-,N/A,,Clear,190,2012-12-23 20:53:00
4:53 PM,45.0,19.9,37,29.91,10.0,SSW,9.2,-,N/A,,Clear,200,2012-12-23 21:53:00
5:53 PM,41.0,21.0,45,29.92,10.0,SSW,8.1,-,N/A,,Clear,200,2012-12-23 22:53:00
6:53 PM,39.0,21.0,49,29.93,10.0,South,6.9,-,N/A,,Clear,180,2012-12-23 23:53:00
7:53 PM,39.9,21.9,49,29.94,10.0,SSW,8.1,-,N/A,,Clear,210,2012-12-24 00:53:00
8:53 PM,37.9,21.9,53,29.95,10.0,South,8.1,-,N/A,,Clear,190,2012-12-24 01:53:00
9:53 PM,39.9,21.9,49,29.96,10.0,SSW,5.8,-,N/A,,Clear,200,2012-12-24 02:53:00
10:53 PM,41.0,21.9,47,29.98,10.0,SSW,4.6,-,N/A,,Clear,210,2012-12-24 03:53:00
11:53 PM,34.0,23.0,64,29.98,10.0,Calm,Calm,-,N/A,,Clear,0,2012-12-24 04:53:00